Dewpoint
67 68 70 72 72 72 72 71 71 70 71 69 67 65 64 65 67 71 71 70 71 71 71 71 71 70 69 69 70 69 67 65 62 61 66 68 69 69 70 71 71 70 70
67 69 70 70 72 73 72 72 73 73 71 71 69 67 67 67 68 70 70 70 71 71 71 70 70 71 70 70 70 68 68 66 65 63 64 67 68 68 68 69 70 71 69
68 69 71 71 72 73 73 73 73 73 72 70 68 67 69 69 68 68 67 67 67 67 68 68 69 70 70 70 70 69 68 69 66 65 65 67 67 67 68 70 69 69 69
68 70 71 72 72 73 73 73 73 73 73 72 71 70 67 67 69 67 67 68 68 67 68 68 68 69 70 69 70 68 68 67 66 66 65 65 65 66 67 66 67 68 67
69 70 71 72 72 73 72 72 72 72 71 71 71 69 68 69 71 69 67 66 66 65 66 66 68 69 69 69 69 65 67 67 64 64 63 64 64 64 64 66 67 67 66
71 71 72 73 72 71 71 71 70 69 69 69 69 70 68 70 68 68 67 65 65 66 66 66 65 66 68 68 68 67 66 66 66 66 64 65 65 64 65 65 66 63 62
72 70 70 70 70 70 70 70 69 69 69 69 68 67 69 71 67 66 67 66 66 66 66 66 69 70 70 69 67 66 67 67 67 67 66 66 65 65 64 64 66 64 63
70 69 70 70 69 70 70 69 69 69 69 69 68 68 68 69 66 65 67 68 68 67 68 67 66 66 66 66 66 66 65 66 67 68 69 68 66 65 65 65 66 65 64
69 69 69 70 69 69 68 68 67 67 67 67 67 67 67 66 62 63 66 66 66 65 66 65 65 66 63 64 65 65 65 65 66 65 65 66 66 65 67 67 65 64 63
68 68 68 68 68 67 67 67 67 67 67 67 66 65 64 64 61 61 63 65 63 63 64 67 62 61 60 60 65 63 63 65 67 67 67 66 66 66 66 67 67 64 63
68 69 69 68 68 68 67 68 67 66 65 65 65 64 64 63 62 59 59 64 65 65 66 65 65 59 58 59 60 65 64 64 66 66 65 65 65 65 65 66 66 66 64
69 68 68 68 69 67 66 66 66 66 63 63 63 64 64 63 59 59 59 60 63 64 65 65 64 57 59 58 61 59 61 64 65 64 63 63 62 63 64 63 64 64 64
67 67 67 65 65 67 65 65 62 64 62 62 63 62 61 61 61 58 58 59 60 63 63 62 59 57 57 59 58 60 62 65 64 63 62 61 62 63 63 62 62 62 62
66 66 66 65 63 65 64 64 61 60 62 60 62 62 60 59 59 62 62 62 61 62 61 62 61 60 58 59 59 59 60 63 63 62 61 62 63 61 60 61 60 60 59
66 66 66 67 66 63 64 61 63 62 59 60 61 61 57 56 59 56 55 59 58 57 56 64 62 62 61 60 59 59 59 59 61 62 62 62 61 59 58 59 59 58 57
67 67 67 66 66 66 63 64 53 53 51 49 50 55 58 53 51 50 48 47 48 51 60 61 61 62 63 64 59 57 57 58 58 60 61 61 60 58 57 57 57 56 56
67 66 66 62 62 62 64 64 64 59 52 50 48 49 50 51 48 45 45 46 48 53 60 60 60 61 61 61 61 58 59 59 60 61 60 59 59 59 57 57 57 57 56
67 62 65 65 63 64 62 63 63 63 60 60 53 52 51 49 47 45 46 50 60 59 60 60 59 61 60 60 60 59 60 58 59 60 60 59 58 57 57 55 55 54 54
67 66 66 65 64 61 62 62 62 63 61 61 61 54 52 46 45 46 46 57 59 60 61 61 60 60 60 60 60 59 59 60 58 60 60 58 57 57 57 55 55 52 53
65 62 63 65 62 60 61 63 62 61 61 63 62 61 58 55 56 56 57 58 59 61 62 62 61 61 61 60 59 59 59 61 61 60 59 58 58 56 55 55 55 55 54
66 65 63 64 61 60 60 60 61 58 58 60 63 63 55 58 57 57 60 61 61 62 62 63 62 61 61 61 59 59 60 61 61 61 60 58 56 56 56 55 56 56 57
66 63 59 59 61 61 62 59 58 58 58 58 58 60 50 59 60 60 61 63 63 64 63 63 62 61 62 62 61 60 60 61 61 60 60 59 57 57 56 57 57 56 55
64 57 54 52 61 60 60 57 57 59 59 59 58 60 59 61 61 61 63 64 64 64 64 63 63 62 62 62 62 62 62 61 62 59 59 59 58 59 58 58 58 55 55
59 57 53 51 57 59 58 57 56 55 57 58 58 60 60 60 62 63 63 63 64 63 64 64 63 62 63 62 62 62 64 64 62 60 59 59 57 55 58 58 57 56 56
59 57 54 53 52 54 58 55 59 57 57 58 60 62 61 61 62 63 63 64 64 64 63 64 63 63 63 61 61 61 54 49 58 53 59 58 57 56 56 57 56 55 55
60 59 57 54 55 57 58 59 57 57 56 54 55 57 59 62 62 62 62 63 63 62 62 63 63 63 63 62 59 48 38 41 51 46 58 58 57 56 55 55 55 55 53
Lifted_Index
-3 -3 -4 -4 -5 -5 -5 -5 -5 -5 -5 -5 -4 -4 -4 -3 -3 -3 -4 -4 -4 -4 -4 -5 -5 -5 -5 -4 -4 -5 -4 -4 -4 -3 -2 -2 -3 -3 -3 -3 -2 -3 -3
-3 -4 -4 -5 -5 -6 -6 -6 -6 -6 -6 -6 -5 -5 -4 -4 -3 -3 -3 -4 -4 -4 -4 -4 -4 -4 -4 -4 -4 -4 -4 -4 -3 -3 -2 -2 -2 -2 -2 -2 -2 -2 -2
-4 -5 -5 -5 -6 -6 -6 -7 -7 -7 -7 -7 -6 -5 -4 -3 -3 -2 -2 -2 -2 -3 -3 -3 -3 -3 -3 -3 -3 -3 -3 -3 -3 -2 -2 -1 -1 -1 -1 -2 -2 -2 -2
-5 -5 -6 -6 -6 -7 -7 -7 -7 -7 -7 -7 -6 -5 -4 -3 -2 -2 -1 -1 -0 -0 -0 -1 -2 -2 -2 -2 -3 -2 -2 -2 -2 -1 -1 -0 0 0 0 -0 -1 -1 -1
-5 -6 -6 -7 -7 -7 -7 -7 -7 -7 -7 -6 -5 -4 -4 -3 -2 -2 -1 -0 1 1 1 -0 -1 -2 -2 -2 -2 -2 -1 -1 -1 -1 -1 -0 0 0 0 0 -0 -0 -1
-6 -6 -7 -7 -7 -7 -7 -7 -7 -6 -6 -5 -4 -4 -4 -3 -3 -2 -2 -1 0 1 -0 -1 -1 -2 -2 -2 -2 -2 -2 -2 -2 -2 -1 -1 -1 -1 -0 0 0 -0 -0
-6 -6 -6 -6 -6 -6 -6 -6 -5 -5 -5 -5 -4 -4 -4 -3 -3 -3 -2 -1 -1 -1 -1 -2 -2 -2 -2 -2 -2 -2 -2 -2 -2 -3 -2 -2 -2 -2 -1 -1 0 0 0
-5 -5 -5 -5 -5 -5 -5 -4 -4 -4 -4 -3 -3 -3 -3 -3 -3 -2 -2 -2 -2 -2 -2 -2 -2 -2 -2 -2 -2 -2 -2 -2 -3 -3 -3 -3 -3 -3 -2 -1 -0 0 0
-4 -4 -4 -4 -4 -4 -4 -4 -3 -3 -3 -2 -1 -1 -1 -1 -1 -1 -1 -1 -1 -1 -1 -1 -1 -2 -2 -2 -2 -2 -2 -2 -3 -3 -3 -3 -3 -3 -2 -2 -1 -0 0
-4 -4 -4 -4 -3 -3 -3 -3 -3 -2 -2 -1 -0 0 0 1 0 0 1 1 1 1 0 -0 -1 -1 -2 -2 -2 -2 -2 -2 -2 -3 -3 -3 -3 -3 -2 -2 -1 -1 -0
-4 -4 -4 -3 -3 -3 -3 -3 -3 -2 -1 -1 0 1 1 1 1 1 1 1 2 2 1 1 0 -0 -1 -1 -1 -1 -1 -1 -2 -3 -3 -3 -3 -3 -2 -2 -1 -1 -0
-3 -3 -3 -3 -3 -3 -2 -2 -2 -1 -1 -0 0 1 2 2 2 1 1 1 2 2 2 1 1 1 0 -0 -0 -0 -1 -1 -2 -3 -3 -3 -3 -2 -2 -1 -1 -1 -0
-3 -3 -3 -2 -2 -2 -2 -1 -1 -1 -0 0 0 1 3 3 3 2 2 1 1 1 1 1 1 0 0 -0 -0 -0 -1 -1 -2 -2 -2 -2 -2 -2 -1 -1 -1 -0 -0
-3 -3 -2 -2 -2 -1 -1 -1 -1 -1 -0 0 1 2 3 4 3 2 2 1 1 0 0 0 0 -0 -0 -0 -0 -0 -0 -1 -1 -2 -2 -1 -1 -1 -1 -1 -1 -1 -0
-3 -2 -2 -2 -2 -1 -1 -1 -1 -1 -0 0 1 2 3 4 3 2 1 1 0 0 0 -0 -0 -0 -0 -0 0 -0 -0 -0 -1 -1 -1 -1 -1 -1 -1 -1 -1 -1 -1
-3 -3 -3 -3 -2 -2 -1 -1 -1 -1 -0 0 1 2 3 4 3 2 1 0 0 0 0 0 -0 -0 -0 0 0 0 0 0 -0 -1 -1 -1 -1 -0 0 -0 -1 -0 -0
-3 -3 -3 -2 -2 -1 -1 -1 -1 -0 0 0 1 2 3 4 3 2 1 -0 -0 -0 -0 0 0 0 -0 -0 0 0 0 0 0 -0 -1 -1 -0 1 1 1 1 1 1
-3 -3 -3 -2 -2 -1 -1 -1 -0 -0 0 1 1 1 2 3 3 2 1 -0 -0 -1 -0 0 0 0 0 0 0 0 0 -0 -0 -0 -1 -0 0 1 1 2 2 2 3
-3 -3 -2 -2 -2 -1 -1 -0 -0 0 1 1 1 1 1 1 2 2 1 0 -0 -0 -1 -0 0 1 1 1 1 1 0 -0 -1 -1 -1 -1 0 1 2 3 3 4 4
-2 -2 -2 -2 -1 -1 -0 -0 -0 1 1 1 1 0 0 0 1 2 2 1 0 -0 -0 -0 0 0 1 1 1 1 1 0 -0 -0 -0 -0 0 1 2 4 4 4 4
-1 -1 -1 -1 -1 -0 -0 0 0 1 1 1 1 1 0 0 1 1 1 0 -0 -0 -0 -0 -0 0 0 1 1 1 1 1 1 0 0 0 1 2 3 4 4 4 4
-1 -1 -1 -0 -0 -0 0 0 1 1 1 1 1 1 0 0 0 1 0 -0 -0 -0 -0 -0 -0 0 0 0 1 1 1 1 1 1 1 1 1 2 3 3 4 4 4
-1 -1 -0 0 0 0 0 1 1 2 1 1 1 1 0 0 0 0 0 0 -0 -0 -0 -0 -0 -0 0 1 1 1 1 1 1 1 2 2 2 2 2 3 3 4 4
-0 0 1 1 1 1 1 1 2 2 1 1 1 1 0 0 0 0 0 0 0 0 -0 -0 -0 -0 0 1 1 1 1 1 1 2 2 2 2 2 3 3 3 4 5
-0 1 2 2 2 3 2 1 1 2 1 1 1 1 1 0 0 1 1 1 0 1 0 0 0 0 0 1 2 2 2 2 2 2 3 3 3 3 3 4 4 5 5
0 1 2 3 3 3 2 1 1 1 2 2 2 1 1 1 1 1 1 1 1 1 1 1 0 0 0 1 2 2 2 2 2 3 4 4 3 3 3 4 5 5 5